Weather History for KGUS - January, 2014

Change the Weather History Date:

Saturday, January 11, 2014

  Actual Average Record
Temperature  
Mean Temperature 36 °F -  
Max Temperature 41 °F 29 °F 57 °F (2013)
Min Temperature 31 °F 17 °F -2 °F (1997)
Degree Days  
Heating Degree Days 28    
Moisture  
Dew Point 37 °F    
Average Humidity 100    
Maximum Humidity 100    
Minimum Humidity 100    
Precipitation  
Precipitation 0.01 in - - ()
Snow  
Snow 0.00 in - - ()
Snow Depth 2.00 in    
Sea Level Pressure  
Sea Level Pressure 29.54 in    
Wind  
Wind Speed 12 mph (SW)    
Max Wind Speed 23 mph    
Max Gust Speed 30 mph    
Visibility 5 miles    
Events Fog , Rain    
Averages and records for this station are not official NWS values.
T = Trace of Precipitation, MM = Missing Value Source: NWS Daily Summary

Daily Weather History Graph

Daily Weather History Graph

Search for Another Location

Airport or City:

Trip Planner

Search our weather history database for the weather conditions in past years. The results will help you decide how hot, cold, wet, or windy it might be!

Date:

Astronomy

Jan. 11, 2014 Rise Set
Actual Time 8:07 AM EST 5:37 PM EST
Civil Twilight 7:37 AM EST 6:08 PM EST
Nautical Twilight 7:03 AM EST 6:42 PM EST
Astronomical Twilight 6:30 AM EST 7:14 PM EST
Moon 2:21 PM EST (1/11) 4:11 AM EST (1/11)
Length of Visible Light 10h 30m
Length of Day
9h 30m
Waxing Gibbous, 83% of the Moon is Illuminated
Jan 11
Waxing Gibbous
Jan 15
Full
Jan 24
Last Quarter
Jan 30
New
Feb 6
First Quarter

Hourly Weather History & Observations

Time (EST) Temp. Windchill Dew Point Humidity Pressure Visibility Wind Dir Wind Speed Gust Speed Precip Events Conditions
12:08 AM 39.2 °F 32.5 °F 39.2 °F 100% 29.59 in 10.0 mi SSE 10.4 mph - N/A   Overcast
12:23 AM 39.2 °F 33.0 °F 39.2 °F 100% 29.58 in 10.0 mi SSE 9.2 mph - N/A   Overcast
12:58 AM 40.8 °F 34.5 °F 40.8 °F 100% 29.59 in 10.0 mi South 10.4 mph - 0.00 in   Overcast
1:18 AM 41.0 °F 34.3 °F 41.0 °F 100% 29.57 in 10.0 mi South 11.5 mph - N/A   Overcast
1:33 AM 39.2 °F 32.0 °F 39.2 °F 100% 29.56 in 8.0 mi South 11.5 mph - N/A   Overcast
1:58 AM 39.6 °F 33.0 °F 39.6 °F 100% 29.59 in 5.0 mi South 10.4 mph - N/A   Overcast
2:03 AM 39.2 °F 32.5 °F 39.2 °F 100% 29.55 in 4.0 mi South 10.4 mph - N/A   Overcast
2:08 AM 39.2 °F 32.0 °F 39.2 °F 100% 29.56 in 3.0 mi South 11.5 mph - N/A   Overcast
2:13 AM 39.2 °F 32.0 °F 39.2 °F 100% 29.56 in 1.2 mi SSW 11.5 mph - N/A   Overcast
2:18 AM 39.2 °F 32.5 °F 39.2 °F 100% 29.55 in 0.5 mi South 10.4 mph - N/A Fog Fog
2:38 AM 39.2 °F 33.0 °F 39.2 °F 100% 29.54 in 0.2 mi South 9.2 mph - N/A Fog Fog
2:43 AM 39.2 °F 33.0 °F 39.2 °F 100% 29.54 in 0.2 mi South 9.2 mph - N/A Fog Fog
2:58 AM 38.7 °F 32.9 °F 38.7 °F 100% 29.57 in 0.2 mi SSW 8.1 mph - N/A Fog Fog
3:58 AM 38.3 °F 33.9 °F 38.3 °F 100% 29.54 in 0.2 mi SSE 5.8 mph - N/A Fog Fog
4:13 AM 39.2 °F 33.6 °F 39.2 °F 100% 29.50 in 0.5 mi South 8.1 mph - N/A Fog Fog
4:25 AM 39.2 °F 33.0 °F 39.2 °F 100% 29.49 in 0.5 mi SSE 9.2 mph - N/A Fog Fog
4:34 AM 39.2 °F 34.2 °F 39.2 °F 100% 29.48 in 0.5 mi SSE 6.9 mph - N/A Fog Fog
4:41 AM 39.2 °F 35.0 °F 39.2 °F 100% 29.46 in 0.5 mi SSE 5.8 mph - N/A Fog , Rain Light Rain
4:58 AM 39.7 °F 35.6 °F 39.7 °F 100% 29.49 in 0.5 mi Variable 5.8 mph - 0.00 in Fog , Rain Light Rain
5:03 AM 39.2 °F 34.2 °F 39.2 °F 100% 29.46 in 0.5 mi South 6.9 mph - N/A Fog Fog
5:48 AM 39.2 °F 33.0 °F 39.2 °F 100% 29.45 in 0.5 mi South 9.2 mph - N/A Fog Fog
5:58 AM 39.0 °F 33.4 °F 39.0 °F 100% 29.47 in 0.5 mi South 8.1 mph - 0.00 in Fog Fog
6:14 AM 39.2 °F 33.6 °F 39.2 °F 100% 29.45 in 0.5 mi South 8.1 mph - N/A Fog , Rain Light Rain
6:24 AM 39.2 °F 31.6 °F 39.2 °F 100% 29.45 in 0.8 mi South 12.7 mph - N/A Rain Light Rain
6:29 AM 39.2 °F 31.6 °F 39.2 °F 100% 29.44 in 1.8 mi South 12.7 mph - N/A Rain Light Rain
6:34 AM 41.0 °F 34.3 °F 41.0 °F 100% 29.44 in 4.0 mi South 11.5 mph - N/A   Light Drizzle
6:35 AM 41.0 °F 33.9 °F 41.0 °F 100% 29.44 in 4.0 mi South 12.7 mph - N/A   Overcast
6:39 AM 41.0 °F 34.3 °F 41.0 °F 100% 29.44 in 5.0 mi South 11.5 mph - N/A   Light Drizzle
6:44 AM 41.0 °F 34.7 °F 41.0 °F 100% 29.44 in 4.0 mi South 10.4 mph - N/A   Light Drizzle
6:49 AM 41.0 °F 34.7 °F 41.0 °F 100% 29.44 in 3.0 mi South 10.4 mph - N/A   Light Drizzle
6:52 AM 39.2 °F 32.0 °F 39.2 °F 100% 29.43 in 2.0 mi South 11.5 mph - N/A   Overcast
6:57 AM 41.0 °F 33.9 °F 41.0 °F 100% 29.44 in 2.0 mi SSW 12.7 mph - N/A   Overcast
6:58 AM 40.1 °F 32.7 °F 40.1 °F 100% 29.47 in 2.0 mi SSW 12.7 mph - 0.01 in   Overcast
7:03 AM 41.0 °F 34.3 °F 41.0 °F 100% 29.44 in 4.0 mi SSW 11.5 mph - N/A   Overcast
7:08 AM 41.0 °F 34.7 °F 41.0 °F 100% 29.44 in 5.0 mi SSW 10.4 mph - N/A   Overcast
7:13 AM 41.0 °F 34.7 °F 41.0 °F 100% 29.44 in 2.5 mi SSW 10.4 mph - N/A   Overcast
7:21 AM 39.2 °F 32.0 °F 39.2 °F 100% 29.44 in 1.5 mi SW 11.5 mph - N/A   Overcast
7:58 AM 38.3 °F 30.9 °F 38.3 °F 100% 29.46 in 0.8 mi SW 11.5 mph - N/A   Overcast
8:03 AM 37.4 °F 29.8 °F 37.4 °F 100% 29.44 in 0.5 mi WSW 11.5 mph - N/A Fog Fog
8:13 AM 39.2 °F 31.2 °F 39.2 °F 100% 29.43 in 0.2 mi WSW 13.8 mph - N/A Fog Fog
8:58 AM 38.8 °F 30.8 °F 38.8 °F 100% 29.47 in 0.2 mi WSW 13.8 mph - N/A Fog Fog
9:58 AM 37.0 °F 26.7 °F 37.0 °F 100% 29.51 in 0.5 mi West 19.6 mph - N/A Fog , Rain Light Rain
10:13 AM 37.4 °F 28.2 °F 37.4 °F 100% 29.48 in 2.0 mi West 16.1 mph - N/A Rain Light Rain
10:29 AM 35.6 °F 25.2 °F 35.6 °F 100% 29.49 in 3.0 mi West 18.4 mph - N/A   Overcast
10:58 AM 35.6 °F 26.2 °F 35.6 °F 100% 29.52 in 6.0 mi West 15.0 mph - 0.00 in   Overcast
11:58 AM 34.3 °F 22.6 °F 34.3 °F 100% 29.54 in 10.0 mi West 21.9 mph 27.6 mph 0.00 in Rain Light Rain
12:58 PM 33.3 °F 22.1 °F 33.3 °F 100% 29.54 in 7.0 mi West 18.4 mph 25.3 mph 0.00 in Rain Light Rain
1:29 PM 32.0 °F 20.8 °F 32.0 °F 100% 29.51 in 10.0 mi West 17.3 mph - N/A Rain Light Rain
1:55 PM 32.0 °F 20.5 °F 32.0 °F 100% 29.52 in 10.0 mi West 18.4 mph - N/A   Overcast
2:58 PM 33.1 °F 20.6 °F 33.1 °F 100% 29.56 in 10.0 mi West 23.0 mph 29.9 mph 0.00 in   Overcast
3:58 PM 32.7 °F 20.1 °F 32.7 °F 100% 29.60 in 7.0 mi West 23.0 mph 29.9 mph N/A   Overcast
4:58 PM 33.3 °F 22.1 °F 33.3 °F 100% 29.63 in 10.0 mi West 18.4 mph 28.8 mph N/A   Overcast
5:24 PM 32.0 °F 20.8 °F 32.0 °F 100% 29.60 in 10.0 mi West 17.3 mph - N/A   Overcast
5:58 PM 33.4 °F 23.9 °F 33.4 °F 100% 29.65 in 10.0 mi West 13.8 mph - N/A   Overcast
6:58 PM 33.8 °F 23.9 °F 33.8 °F 100% 29.68 in 10.0 mi WSW 15.0 mph - N/A   Overcast
7:58 PM 34.2 °F 24.0 °F 34.2 °F 100% 29.70 in 10.0 mi WSW 16.1 mph - N/A   Overcast
8:58 PM 33.8 °F 24.3 °F 33.8 °F 100% 29.72 in 10.0 mi WSW 13.8 mph - N/A   Overcast
9:28 PM 33.8 °F 24.3 °F 33.8 °F 100% 29.70 in 10.0 mi WSW 13.8 mph - N/A   Overcast
9:48 PM 33.8 °F 23.5 °F 33.8 °F 100% 29.71 in 10.0 mi West 16.1 mph - N/A   Overcast
9:58 PM 34.2 °F 25.2 °F 34.2 °F 100% 29.74 in 10.0 mi West 12.7 mph - N/A   Overcast
10:03 PM 33.8 °F 24.3 °F 33.8 °F 100% 29.71 in 10.0 mi West 13.8 mph - N/A   Overcast
10:58 PM 32.9 °F 22.4 °F 32.9 °F 100% 29.77 in 10.0 mi WNW 16.1 mph - N/A   Overcast
11:03 PM 32.0 °F 20.1 °F 32.0 °F 100% 29.74 in 10.0 mi WNW 19.6 mph 25.3 mph N/A   Overcast
11:58 PM 31.1 °F 18.3 °F 31.1 °F 100% 29.79 in 10.0 mi WNW 21.9 mph - N/A   Overcast